Location: Potomac
(46.8816°N, 113.5795°W)
Time: 00:08:52
(UTC+00:00)

JY1SAT - Pass Details

Date: 29 June 2022
Orbit: 564 x 586 km, 97.6° (Epoch: 15 August)

Event Time Altitude Azimuth Distance (km) Brightness Sun altitude
Exits shadow 04:05:47 - 130° (SE) 2,208 ? -5.2°
Reaches altitude 10° 04:06:36 10° 125° (SE) 1,911 ? -5.3°
Maximum altitude 04:10:07 28° 67° (ENE) 1,132 ? -5.7°
Drops below altitude 10° 04:13:40 10° 9° (N) 1,924 ? -6.2°
Sets 04:16:04 0° 357° (N) 2,829 ? -6.4°
